STARLINK-36974

Last updated on Sun Apr 12 2026 00:02:07 GMT+0000 (Coordinated Universal Time)

1 68272U 26055L 26101.50918793 .00270671 00000+0 13247-2 0 9996 2 68272 53.1577 172.7306 0001916 31.1023 329.0112 15.80997348 4879
UTC large
Height (km)
Speed (km/s)
/
Latitude / Longitude
Inclination (degrees)
Orbital Period (minutes)
Azimuth
Elevation
Range (km)
Doppler Factor

Next 0 passes for location: London (51.5072 / 0.1276)

Sorry there are no passes over London.
STARLINK-36974